Tiros 10 - Orbit

View from above orbital plane
View from above orbital plane
View from above satellite
View from above satellite

Ground track
Ground track

The orbit data is extracted from the following two-line orbital elements,

1 01430U 65051A   13168.67052509  .00000055  00000-0  30172-4 0  3214
2 01430 098.1123 021.4568 0056571 000.0710 000.0477 14.39742615512909
Epoch (UTC): 17 June 2013 16:05:33
Eccentricity: 0.0056571
inclination: 98.1123°
perigee height: 719 km
apogee height: 800 km
right ascension of ascending node: 21.4568°
argument of perigee: 0.0710°
revolutions per day: 14.39742615
mean anomaly at epoch: 0.0477°
orbit number at epoch: 51290

The dashed part of the orbit path shows where the satellite is in the earth's shadow,  

Developed and maintained by Chris Peat, Heavens-Above GmbH. Please read the updated FAQ before sending e-mail. Imprint. DLR